This is the latest recevied weather packets stored in our database for station/object SV1RVP-13. If no packets are shown the sender has not sent any weather packets the latest 10 day(s).
| Time | Temp. | Humidity | Pressure | Rain* | Wind** | Luminosity | Snow |
|---|---|---|---|---|---|---|---|
| 1777488512 | 20° C | 66% | 1015.6 hPa | 0 mm | - | - | - |
| 1777487911 | 20° C | 66% | 1015.5 hPa | 0 mm | - | - | - |
| 1777487332 | 20° C | 66% | 1015.4 hPa | 0 mm | - | - | - |
| 1777486703 | 20° C | 65% | 1015.4 hPa | 0 mm | - | - | - |
| 1777486130 | 20.56° C | 63% | 1015.3 hPa | 0 mm | - | - | - |
| 1777485526 | 20.56° C | 60% | 1015 hPa | 0 mm | - | - | - |
| 1777484919 | 21.11° C | 56% | 1015 hPa | 0 mm | - | - | - |
| 1777484317 | 21.11° C | 53% | 1014.9 hPa | 0 mm | - | - | - |
| 1777483713 | 21.67° C | 43% | 1014.9 hPa | 0 mm | - | - | - |
| 1777483114 | 21.67° C | 41% | 1015 hPa | 0 mm | - | - | - |
| 1777482506 | 21.67° C | 42% | 1015 hPa | 0 mm | - | - | - |
| 1777481935 | 21.67° C | 42% | 1014.9 hPa | 0 mm | - | - | - |
| 1777481305 | 21.67° C | 43% | 1014.9 hPa | 0 mm | - | - | - |
| 1777480724 | 21.67° C | 45% | 1014.9 hPa | 0 mm | - | - | - |
| 1777480120 | 21.67° C | 49% | 1014.9 hPa | 0 mm | - | - | - |
| 1777479507 | 21.67° C | 49% | 1014.9 hPa | 0 mm | - | - | - |
| 1777478923 | 22.22° C | 47% | 1015 hPa | 0 mm | - | - | - |
| 1777478317 | 22.22° C | 48% | 1015 hPa | 0 mm | - | - | - |
| 1777477718 | 22.22° C | 49% | 1015 hPa | 0 mm | - | - | - |
| 1777477106 | 21.67° C | 47% | 1015 hPa | 0 mm | - | - | - |
| 1777476510 | 21.67° C | 49% | 1014.9 hPa | 0 mm | - | - | - |
| 1777475913 | 21.67° C | 50% | 1015 hPa | 0 mm | - | - | - |
| 1777475337 | 21.67° C | 52% | 1015 hPa | 0 mm | - | - | - |
| 1777474718 | 21.67° C | 51% | 1015 hPa | 0 mm | - | - | - |
| 1777474122 | 22.22° C | 51% | 1015 hPa | 0 mm | - | - | - |
* Rain since midnight (hover to see other rain measurements)
** Current wind speed in m/s (hover to see current wind gust speed)